Jackson, TN

8:48 AM CDT on June 26, 2017 (GMT -0500)
McKellar-Sipes Regional

Weather History for KMKL - June, 2012

Change the Weather History Date:

Thursday, June 21, 2012

  Actual Average Record
Temperature  
Mean Temperature 79 °F 78 °F  
Max Temperature 91 °F 89 °F 100 °F (1953)
Min Temperature 66 °F 67 °F 52 °F (1992)
Degree Days  
Heating Degree Days 0 0  
Month to date heating degree days 2 0  
Since 1 June heating degree days 2 0  
Since 1 July heating degree days 2773 3572  
Cooling Degree Days 14 13  
Month to date cooling degree days 192 219  
Year to date cooling degree days 586 434  
Since 1 June cooling degree days 192 219  
Growing Degree Days 32 (Base 50)    
Moisture  
Dew Point 64 °F    
Average Humidity 64    
Maximum Humidity 90    
Minimum Humidity 38    
Precipitation  
Precipitation 0.00 in 0.16 in 1.18 in (1958)
Month to date precipitation 3.02 3.54  
Year to date precipitation 15.94 27.08  
Snow  
Snow 0.00 in - - ()
Month to date snowfall 0.0  
Since 1 June snowfall 0.0  
Snow Depth 0.00 in    
Sea Level Pressure  
Sea Level Pressure 30.02 in    
Wind  
Wind Speed 3 mph (SSW)    
Max Wind Speed 9 mph    
Max Gust Speed -    
Visibility 10 miles    
Events      
T = Trace of Precipitation, MM = Missing Value Source: NWS Daily Summary

Daily Weather History Graph

Daily Weather History Graph

Search for Another Location

Airport or City:

Trip Planner

Search our weather history database for the weather conditions in past years. The results will help you decide how hot, cold, wet, or windy it might be!

Date:

Astronomy

Jun. 21, 2012 Rise Set
Actual Time 5:40 AM CDT 8:14 PM CDT
Civil Twilight 5:10 AM CDT 8:44 PM CDT
Nautical Twilight 4:33 AM CDT 9:22 PM CDT
Astronomical Twilight 3:51 AM CDT 10:03 PM CDT
Moon 7:35 AM CDT (6/21) 9:42 PM CDT (6/21)
Length of Visible Light 15h 34m
Length of Day
14h 34m
Waxing Crescent, 4% of the Moon is Illuminated
Jun 21
Waxing Crescent
Jun 26
First Quarter
Jul 3
Full
Jul 10
Last Quarter
Jul 18
New

Hourly Weather History & Observations

Time (CDT) Temp. Heat Index Dew Point Humidity Pressure Visibility Wind Dir Wind Speed Gust Speed Precip Events Conditions
12:53 AM - - - N/A% 30.05 in - North - - N/A   Unknown
1:53 AM - - - N/A% 30.04 in - North - - N/A   Unknown
2:53 AM - - - N/A% 30.05 in - North - - N/A   Unknown
3:53 AM - - - N/A% 30.05 in - North - - N/A   Unknown
4:53 AM - - - N/A% 30.06 in - North - - N/A   Unknown
5:53 AM - - - N/A% 30.07 in - North - - N/A   Unknown
6:53 AM - - - N/A% 30.08 in 10.0 mi SE 3.5 mph - N/A   Clear
7:53 AM - - - N/A% 30.09 in 10.0 mi Calm Calm - N/A   Clear
8:53 AM - - - N/A% 30.10 in 10.0 mi Calm Calm - N/A   Clear
9:53 AM - - - N/A% 30.09 in 10.0 mi SW 9.2 mph - N/A   Clear
10:53 AM 87.8 °F 88.5 °F 62.6 °F 43% 30.09 in 10.0 mi SSW 5.8 mph - N/A   Clear
11:53 AM 86.0 °F 86.8 °F 63.0 °F 46% 30.07 in 10.0 mi SW 4.6 mph - N/A   Mostly Cloudy
12:53 PM 88.0 °F 88.4 °F 62.1 °F 42% 30.03 in 10.0 mi Calm Calm - N/A   Partly Cloudy
1:53 PM 90.0 °F 90.6 °F 63.0 °F 40% 30.00 in 10.0 mi WSW 5.8 mph - N/A   Clear
2:53 PM 89.1 °F 89.0 °F 61.0 °F 39% 29.97 in 10.0 mi Calm Calm - N/A   Partly Cloudy
3:53 PM 90.0 °F 90.3 °F 62.1 °F 39% 29.95 in 10.0 mi SSW 6.9 mph - N/A   Partly Cloudy
4:53 PM 89.1 °F 89.3 °F 62.1 °F 40% 29.95 in 10.0 mi SSW 4.6 mph - N/A   Partly Cloudy
5:53 PM 88.0 °F 88.4 °F 62.1 °F 42% 29.95 in 10.0 mi SSE 4.6 mph - N/A   Scattered Clouds
6:53 PM 82.9 °F 85.0 °F 66.0 °F 56% 29.95 in 10.0 mi SSW 3.5 mph - N/A   Clear
7:53 PM 80.1 °F 81.7 °F 64.0 °F 58% 29.96 in 10.0 mi Calm Calm - N/A   Clear
8:53 PM 75.0 °F - 68.0 °F 79% 29.96 in 10.0 mi Calm Calm - N/A   Clear
9:53 PM 73.9 °F - 68.0 °F 82% 29.97 in 10.0 mi Calm Calm - N/A   Clear
10:53 PM 73.0 °F - 66.9 °F 81% 29.96 in 10.0 mi Calm Calm - N/A   Clear
11:53 PM 69.1 °F - 66.0 °F 90% 29.96 in 10.0 mi Calm Calm - N/A   Clear